Powrót do katalogu

CZ-4 DEB

AktywnySSO
NORAD 32473·DEBRIS·🇨🇳 China

Wystrzelony Sep 19, 2007 z Taiyuan Satellite Launch Center

Loading…

Następne Przeloty (najbliższe 24 godziny)

TLE

ŚwieżeSource: Space-Track

Epoka: Sep 13, 2026, 23:20 UTC

1 32473U 07042C   26256.97247008  .00002385  00000-0  44564-3 0  9994
2 32473  97.9584 262.1025 0085343 313.2533  46.1568 14.63512364991705

Śledź CZ-4 DEB w czasie rzeczywistym z AllMySat

Download on the App Store